When you browse on this site, cookies collect data to enhance your experience and personalize the content and advertising you see.
Visit our Privacy Policy to learn more. By continuing to use the site, you agree to this use of cookies and data.
  • Em Portugal
  • Lista de países
  • Para 7 dias
  • Temperatura da água
  • Mapas de satélite
  • Mapa do tempo
  • Widgets de tempo
  • user-avatar
    Iniciar Sessão

    Previsão horária em Vasilkovka

    Hoje, 19 Fevereiro, Terça-feira

    Tempo Temperatura Precipitação Vento Pressão Humidade
    00:00 -5°C° 0 mm 3 m/s 758 mmHg 81%
    01:00 -4°C° 0 mm 2 m/s 758 mmHg 82%
    02:00 -5°C° 0 mm 2 m/s 758 mmHg 82%
    03:00 -5°C° 0 mm 2 m/s 758 mmHg 81%
    04:00 -5°C° 0 mm 2 m/s 758 mmHg 81%
    05:00 -6°C° 0 mm 2 m/s 759 mmHg 80%
    06:00 -3°C° 0 mm 1 m/s 759 mmHg 79%
    07:00 -3°C° 0 mm 1 m/s 759 mmHg 77%
    08:00 -3°C° 0 mm 1 m/s 760 mmHg 76%
    09:00 -2°C° 0 mm 1 m/s 760 mmHg 72%
    10:00 -2°C° 0 mm 0 m/s 760 mmHg 68%
    11:00 -1°C° 0 mm 0 m/s 760 mmHg 64%
    12:00 0°C° 0 mm 0 m/s 760 mmHg 62%
    13:00 +2°C° 0 mm 1 m/s 759 mmHg 59%
    14:00 +2°C° 0 mm 1 m/s 759 mmHg 56%
    15:00 +2°C° 0 mm 1 m/s 759 mmHg 58%
    16:00 +1°C° 0 mm 1 m/s 759 mmHg 60%
    17:00 +1°C° 0 mm 1 m/s 759 mmHg 62%
    18:00 -2°C° 0 mm 2 m/s 759 mmHg 63%
    19:00 -2°C° 0 mm 2 m/s 758 mmHg 65%
    20:00 -2°C° 0 mm 3 m/s 758 mmHg 66%
    21:00 -2°C° 0 mm 3 m/s 758 mmHg 66%
    22:00 -2°C° 0 mm 3 m/s 758 mmHg 66%
    23:00 -2°C° 0 mm 3 m/s 757 mmHg 67%

    Amanhã, 20 Fevereiro, Quarta-feira

    Tempo Temperatura Precipitação Vento Pressão Humidade
    00:00 -3°C° 0 mm 4 m/s 757 mmHg 68%
    01:00 -3°C° 0 mm 4 m/s 757 mmHg 70%
    02:00 -3°C° 0 mm 4 m/s 757 mmHg 72%
    03:00 -4°C° 0 mm 4 m/s 756 mmHg 71%
    04:00 -4°C° 0 mm 4 m/s 755 mmHg 71%
    05:00 -5°C° 0 mm 5 m/s 755 mmHg 70%
    06:00 -5°C° 0 mm 5 m/s 754 mmHg 69%
    07:00 -4°C° 0 mm 5 m/s 754 mmHg 68%
    08:00 -4°C° 0 mm 6 m/s 754 mmHg 67%
    09:00 -3°C° 0 mm 6 m/s 753 mmHg 67%
    10:00 -1°C° 0 mm 6 m/s 753 mmHg 67%
    11:00 +1°C° 0 mm 6 m/s 753 mmHg 67%
    12:00 +2°C° 0 mm 6 m/s 752 mmHg 70%
    13:00 +2°C° 0 mm 6 m/s 752 mmHg 72%
    14:00 +2°C° 0 mm 5 m/s 751 mmHg 75%
    15:00 +2°C° 0 mm 5 m/s 751 mmHg 79%
    16:00 +2°C° 0 mm 5 m/s 751 mmHg 83%
    17:00 +1°C° 0 mm 4 m/s 750 mmHg 87%
    18:00 +1°C° 0 mm 4 m/s 750 mmHg 89%
    19:00 +1°C° 0 mm 5 m/s 750 mmHg 91%
    20:00 +1°C° 0 mm 5 m/s 750 mmHg 92%
    21:00 +1°C° 0.2 mm 5 m/s 750 mmHg 94%
    22:00 +1°C° 0.2 mm 4 m/s 750 mmHg 95%
    23:00 +1°C° 0.2 mm 4 m/s 750 mmHg 96%

    Depois de amanhã, 21 Fevereiro, Quinta-feira

    Tempo Temperatura Precipitação Vento Pressão Humidade
    00:00 0°C° 0.1 mm 4 m/s 749 mmHg 96%
    01:00 0°C° 0.1 mm 4 m/s 749 mmHg 96%
    02:00 -1°C° 0.1 mm 4 m/s 749 mmHg 96%
    03:00 -1°C° 0 mm 4 m/s 749 mmHg 95%
    04:00 -1°C° 0 mm 4 m/s 748 mmHg 93%
    05:00 -1°C° 0 mm 4 m/s 748 mmHg 92%
    06:00 -1°C° 0.1 mm 5 m/s 748 mmHg 90%
    07:00 -1°C° 0.1 mm 5 m/s 748 mmHg 89%
    08:00 -1°C° 0.1 mm 6 m/s 748 mmHg 87%
    09:00 -1°C° 0.1 mm 6 m/s 748 mmHg 85%
    10:00 -1°C° 0.1 mm 7 m/s 748 mmHg 82%
    11:00 0°C° 0.1 mm 7 m/s 748 mmHg 80%
    12:00 -1°C° 0.1 mm 8 m/s 748 mmHg 74%
    13:00 -2°C° 0.1 mm 8 m/s 748 mmHg 69%
    14:00 -4°C° 0.1 mm 8 m/s 748 mmHg 63%
    15:00 -4°C° 0 mm 8 m/s 749 mmHg 65%
    16:00 -4°C° 0 mm 7 m/s 749 mmHg 68%
    17:00 -4°C° 0 mm 7 m/s 749 mmHg 70%
    18:00 -4°C° 0.1 mm 7 m/s 750 mmHg 71%
    19:00 -6°C° 0.1 mm 7 m/s 750 mmHg 71%
    20:00 -5°C° 0.1 mm 6 m/s 750 mmHg 72%
    21:00 -5°C° 0 mm 6 m/s 750 mmHg 71%
    22:00 -5°C° 0 mm 6 m/s 750 mmHg 71%
    23:00 -6°C° 0 mm 6 m/s 751 mmHg 71%

    22 Fevereiro, Sexta-feira

    Tempo Temperatura Precipitação Vento Pressão Humidade
    00:00 -6°C° 0 mm 5 m/s 751 mmHg 71%
    01:00 -7°C° 0 mm 5 m/s 751 mmHg 72%
    02:00 -8°C° 0 mm 5 m/s 751 mmHg 72%
    03:00 -8°C° 0 mm 5 m/s 751 mmHg 73%
    04:00 -8°C° 0 mm 5 m/s 751 mmHg 74%
    05:00 -8°C° 0 mm 5 m/s 751 mmHg 75%
    06:00 -8°C° 0 mm 5 m/s 752 mmHg 75%
    07:00 -8°C° 0 mm 4 m/s 752 mmHg 75%
    08:00 -8°C° 0 mm 4 m/s 752 mmHg 75%
    09:00 -7°C° 0 mm 4 m/s 752 mmHg 73%
    10:00 -7°C° 0 mm 4 m/s 752 mmHg 72%
    11:00 -7°C° 0 mm 5 m/s 752 mmHg 70%
    12:00 -6°C° 0 mm 5 m/s 752 mmHg 69%
    13:00 -6°C° 0 mm 5 m/s 752 mmHg 68%
    14:00 -6°C° 0 mm 5 m/s 752 mmHg 67%
    15:00 -8°C° 0 mm 6 m/s 753 mmHg 68%
    16:00 -9°C° 0 mm 6 m/s 753 mmHg 69%
    17:00 -11°C° 0 mm 7 m/s 754 mmHg 69%
    18:00 -12°C° 0 mm 7 m/s 754 mmHg 68%
    19:00 -13°C° 0 mm 7 m/s 755 mmHg 67%
    20:00 -12°C° 0 mm 6 m/s 756 mmHg 66%
    21:00 -14°C° 0 mm 6 m/s 756 mmHg 66%
    22:00 -14°C° 0 mm 6 m/s 756 mmHg 66%
    23:00 -13°C° 0 mm 5 m/s 756 mmHg 66%

    23 Fevereiro, Sábado

    Tempo Temperatura Precipitação Vento Pressão Humidade
    00:00 -13°C° 0 mm 5 m/s 756 mmHg 68%
    01:00 -13°C° 0 mm 5 m/s 757 mmHg 70%
    02:00 -14°C° 0 mm 5 m/s 757 mmHg 73%
    03:00 -14°C° 0 mm 5 m/s 757 mmHg 74%
    04:00 -14°C° 0 mm 4 m/s 757 mmHg 76%
    05:00 -14°C° 0 mm 4 m/s 757 mmHg 78%
    06:00 -14°C° 0 mm 5 m/s 758 mmHg 77%
    07:00 -14°C° 0 mm 5 m/s 758 mmHg 76%
    08:00 -14°C° 0 mm 5 m/s 758 mmHg 75%
    09:00 -14°C° 0 mm 5 m/s 759 mmHg 71%
    10:00 -13°C° 0 mm 5 m/s 759 mmHg 67%
    11:00 -13°C° 0 mm 5 m/s 759 mmHg 63%
    12:00 -12°C° 0 mm 5 m/s 759 mmHg 63%
    13:00 -12°C° 0 mm 5 m/s 759 mmHg 62%
    14:00 -12°C° 0 mm 5 m/s 759 mmHg 62%
    15:00 -12°C° 0 mm 5 m/s 759 mmHg 64%
    16:00 -13°C° 0 mm 5 m/s 760 mmHg 66%
    17:00 -13°C° 0 mm 5 m/s 760 mmHg 68%
    18:00 -13°C° 0 mm 5 m/s 760 mmHg 70%
    19:00 -13°C° 0 mm 5 m/s 760 mmHg 72%
    20:00 -14°C° 0 mm 5 m/s 761 mmHg 73%
    21:00 -14°C° 0 mm 4 m/s 761 mmHg 74%
    22:00 -14°C° 0 mm 4 m/s 761 mmHg 75%
    23:00 -14°C° 0 mm 4 m/s 761 mmHg 76%

    24 Fevereiro, Domingo

    Tempo Temperatura Precipitação Vento Pressão Humidade
    00:00 -15°C° 0 mm 4 m/s 761 mmHg 78%
    01:00 -15°C° 0 mm 4 m/s 761 mmHg 79%
    02:00 -15°C° 0 mm 4 m/s 761 mmHg 81%
    03:00 -16°C° 0 mm 4 m/s 761 mmHg 82%
    04:00 -16°C° 0 mm 4 m/s 761 mmHg 83%
    05:00 -16°C° 0 mm 4 m/s 761 mmHg 84%
    06:00 -17°C° 0 mm 5 m/s 761 mmHg 84%
    07:00 -17°C° 0 mm 5 m/s 761 mmHg 83%
    08:00 -17°C° 0 mm 5 m/s 762 mmHg 82%
    09:00 -15°C° 0 mm 5 m/s 762 mmHg 79%
    10:00 -14°C° 0 mm 5 m/s 762 mmHg 75%
    11:00 -13°C° 0 mm 5 m/s 762 mmHg 71%
    12:00 -12°C° 0 mm 6 m/s 762 mmHg 70%
    13:00 -12°C° 0 mm 6 m/s 761 mmHg 70%
    14:00 -11°C° 0 mm 6 m/s 761 mmHg 70%
    15:00 -11°C° 0 mm 6 m/s 761 mmHg 73%
    16:00 -11°C° 0 mm 6 m/s 762 mmHg 75%
    17:00 -12°C° 0 mm 6 m/s 762 mmHg 78%
    18:00 -12°C° 0 mm 6 m/s 762 mmHg 79%
    19:00 -12°C° 0 mm 6 m/s 762 mmHg 80%
    20:00 -12°C° 0 mm 6 m/s 763 mmHg 81%
    21:00 -12°C° 0 mm 6 m/s 763 mmHg 81%
    22:00 -12°C° 0 mm 6 m/s 763 mmHg 81%
    23:00 -12°C° 0 mm 6 m/s 763 mmHg 81%
    Mostrar mais